This is the latest recevied weather packets stored in our database for station/object K9RCP-24. If no packets are shown the sender has not sent any weather packets the latest 10 day(s).
| Time | Temp. | Humidity | Pressure | Rain* | Wind** | Luminosity | Snow |
|---|---|---|---|---|---|---|---|
| 1777802161 | 11.67° C | 85% | 1013.2 hPa | 0 mm | - | - | - |
| 1777802030 | 11.67° C | 85% | 1013.2 hPa | 0 mm | - | - | - |
| 1777801031 | 11.67° C | 86% | 1013.5 hPa | 0 mm | - | - | - |
| 1777798988 | 12.22° C | 85% | 1013.5 hPa | 0 mm | - | - | - |
| 1777798585 | 12.22° C | 85% | 1013.5 hPa | 0 mm | - | - | - |
| 1777797913 | 12.22° C | 85% | 1013.5 hPa | 0 mm | - | - | - |
| 1777796750 | 12.78° C | 84% | 1013.9 hPa | 0 mm | - | - | - |
| 1777796121 | 12.78° C | 84% | 1013.9 hPa | 0 mm | - | - | - |
| 1777795871 | 12.78° C | 84% | 1013.9 hPa | 0 mm | - | - | - |
| 1777795592 | 12.78° C | 84% | 1013.9 hPa | 0 mm | - | - | - |
| 1777795466 | 12.78° C | 84% | 1013.9 hPa | 0 mm | - | - | - |
| 1777794688 | 12.78° C | 83% | 1013.9 hPa | 0 mm | - | - | - |
| 1777794159 | 13.33° C | 83% | 1013.9 hPa | 0 mm | - | - | - |
| 1777794036 | 13.33° C | 82% | 1013.9 hPa | 0 mm | - | - | - |
| 1777792764 | 13.89° C | 81% | 1014.2 hPa | 0 mm | - | - | - |
| 1777792109 | 13.89° C | 81% | 1013.9 hPa | 0 mm | - | - | - |
| 1777791357 | 14.44° C | 81% | 1013.9 hPa | 0 mm | - | - | - |
| 1777791107 | 13.89° C | 81% | 1013.9 hPa | 0 mm | - | - | - |
| 1777790602 | 13.89° C | 81% | 1013.9 hPa | 0 mm | - | - | - |
| 1777788674 | 14.44° C | 80% | 1014.2 hPa | 0 mm | - | - | - |
| 1777788551 | 14.44° C | 80% | 1014.2 hPa | 0 mm | - | - | - |
| 1777788423 | 14.44° C | 79% | 1013.9 hPa | 0 mm | - | - | - |
| 1777788051 | 14.44° C | 79% | 1013.5 hPa | 0 mm | - | - | - |
| 1777787422 | 15° C | 78% | 1013.5 hPa | 0 mm | - | - | - |
| 1777787018 | 15° C | 77% | 1013.9 hPa | 0 mm | - | - | - |
* Rain latest hour (hover to see other rain measurements)
** Current wind speed in m/s (hover to see current wind gust speed)